| time (UTC) | temp F | wind direction | speed MPH | gust MPH | rain 1hr in | rain 24hr in | rain mn in | humidity % | barometer mb |
| 20260906230021 | 70 | 237 | 15.0 | 26.0 | 0.00 | 0.00 | 0.00 | 29 | 1009.6 |
| 20260906224518 | 70 | 243 | 14.0 | 21.0 | 0.00 | 0.00 | 0.00 | 32 | 1009.4 |
| 20260906223018 | 70 | 230 | 14.0 | 22.0 | 0.00 | 0.00 | 0.00 | 32 | 1009.6 |
| 20260906221520 | 71 | 241 | 15.0 | 20.0 | 0.00 | 0.00 | 0.00 | 33 | 1009.7 |
| 20260906220016 | 71 | 216 | 14.0 | 21.0 | 0.00 | 0.00 | 0.00 | 33 | 1009.6 |
| 20260906214515 | 70 | 231 | 12.0 | 23.0 | 0.00 | 0.00 | 0.00 | 33 | 1009.5 |
| 20260906213019 | 71 | 186 | 15.0 | 26.0 | 0.00 | 0.00 | 0.00 | 33 | 1009.2 |
| 20260906211515 | 71 | 257 | 15.0 | 23.0 | 0.00 | 0.00 | 0.00 | 29 | 1009.3 |
| 20260906210016 | 71 | 275 | 14.0 | 28.0 | 0.00 | 0.00 | 0.00 | 32 | 1009.4 |
| 20260906204513 | 71 | 249 | 14.0 | 25.0 | 0.00 | 0.00 | 0.00 | 31 | 1009.4 |
| 20260906203012 | 71 | 231 | 16.0 | 25.0 | 0.00 | 0.00 | 0.00 | 32 | 1009.2 |
| 20260906201512 | 71 | 252 | 13.0 | 26.0 | 0.00 | 0.00 | 0.00 | 32 | 1009.3 |
| 20260906200010 | 70 | 240 | 19.0 | 26.0 | 0.00 | 0.00 | 0.00 | 33 | 1009.6 |
| 20260906194508 | 70 | 225 | 18.0 | 25.0 | 0.00 | 0.00 | 0.00 | 32 | 1009.4 |
| 20260906193006 | 71 | 203 | 18.0 | 24.0 | 0.00 | 0.00 | 0.00 | 32 | 1009.7 |
| 20260906191507 | 70 | 253 | 13.0 | 25.0 | 0.00 | 0.00 | 0.00 | 34 | 1009.9 |
| 20260906190003 | 69 | 240 | 16.0 | 24.0 | 0.00 | 0.00 | 0.00 | 35 | 1009.9 |
| 20260906184501 | 69 | 204 | 2.0 | 16.0 | 0.00 | 0.00 | 0.00 | 37 | 1010.4 |
| 20260906183059 | 69 | 350 | 4.0 | 11.0 | 0.00 | 0.00 | 0.00 | 37 | 1010.5 |
| 20260906181556 | 69 | 141 | 1.0 | 8.0 | 0.00 | 0.00 | 0.00 | 41 | 1010.6 |
| 20260906180105 | 66 | 87 | 1.0 | 10.0 | 0.00 | 0.00 | 0.00 | 42 | 1011.0 |
| 20260906174556 | 66 | 94 | 2.0 | 9.0 | 0.00 | 0.00 | 0.00 | 42 | 1011.1 |
| 20260906173048 | 64 | 251 | 2.0 | 10.0 | 0.00 | 0.00 | 0.00 | 44 | 1011.2 |
| 20260906171551 | 63 | 336 | 1.0 | 12.0 | 0.00 | 0.00 | 0.00 | 47 | 1011.0 |
| 20260906170053 | 61 | 94 | 3.0 | 9.0 | 0.00 | 0.00 | 0.00 | 50 | 1011.5 |
| 20260906164540 | 61 | 87 | 4.0 | 8.0 | 0.00 | 0.00 | 0.00 | 50 | 1011.7 |
| 20260906163044 | 62 | 107 | 1.0 | 6.0 | 0.00 | 0.00 | 0.00 | 51 | 1011.8 |
| 20260906161539 | 61 | 102 | 1.0 | 4.0 | 0.00 | 0.00 | 0.00 | 54 | 1011.8 |
| 20260906160039 | 60 | 158 | 3.0 | 7.0 | 0.00 | 0.00 | 0.00 | 54 | 1012.1 |
| 20260906154533 | 60 | 162 | 0.0 | 4.0 | 0.00 | 0.00 | 0.00 | 56 | 1012.3 |
| 20260906153030 | 58 | 127 | 1.0 | 5.0 | 0.00 | 0.00 | 0.00 | 56 | 1012.6 |
| 20260906151530 | 56 | 196 | 2.0 | 4.0 | 0.00 | 0.00 | 0.00 | 62 | 1012.5 |
| 20260906150031 | 55 | 143 | 0.0 | 4.0 | 0.00 | 0.00 | 0.00 | 63 | 1012.7 |
| 20260906144533 | 52 | 265 | 0.0 | 2.0 | 0.00 | 0.00 | 0.00 | 67 | 1012.4 |
| 20260906143034 | 49 | 95 | 0.0 | 0.0 | 0.00 | 0.00 | 0.00 | 71 | 1012.4 |
| 20260906141529 | 48 | 18 | 0.0 | 2.0 | 0.00 | 0.00 | 0.00 | 72 | 1012.4 |
| 20260906140031 | 48 | 16 | 0.0 | 1.0 | 0.00 | 0.00 | 0.00 | 72 | 1012.2 |
| 20260906134522 | 48 | 330 | 0.0 | 0.0 | 0.00 | 0.00 | 0.00 | 72 | 1012.1 |
| 20260906133024 | 49 | 330 | 0.0 | 0.0 | 0.00 | 0.00 | 0.00 | 71 | 1012.0 |
| 20260906131532 | 49 | 330 | 0.0 | 0.0 | 0.00 | 0.00 | 0.00 | 71 | 1011.9 |
| 20260906130020 | 48 | 330 | 0.0 | 0.0 | 0.00 | 0.00 | 0.00 | 71 | 1011.4 |
| 20260906124518 | 48 | 322 | 3.0 | 5.0 | 0.00 | 0.00 | 0.00 | 71 | 1011.5 |
| 20260906123016 | 48 | 29 | 0.0 | 0.0 | 0.00 | 0.00 | 0.00 | 72 | 1011.7 |
| 20260906121515 | 49 | 346 | 0.0 | 0.0 | 0.00 | 0.00 | 0.00 | 72 | 1011.6 |
| 20260906120013 | 49 | 346 | 0.0 | 0.0 | 0.00 | 0.00 | 0.00 | 69 | 1011.7 |
| 20260906114512 | 49 | 214 | 0.0 | 0.0 | 0.00 | 0.00 | 0.00 | 72 | 1011.5 |
| 20260906113015 | 50 | 332 | 0.0 | 0.0 | 0.00 | 0.00 | 0.00 | 70 | 1011.5 |
| 20260906111511 | 50 | 332 | 0.0 | 0.0 | 0.00 | 0.00 | 0.00 | 71 | 1011.4 |
| 20260906110008 | 50 | 305 | 3.0 | 5.0 | 0.00 | 0.00 | 0.00 | 71 | 1011.5 |
| 20260906104507 | 50 | 327 | 0.0 | 4.0 | 0.00 | 0.00 | 0.00 | 71 | 1011.5 |
| 20260906103005 | 50 | 27 | 0.0 | 3.0 | 0.00 | 0.00 | 0.00 | 70 | 1011.7 |
| 20260906101504 | 50 | 316 | 1.0 | 5.0 | 0.00 | 0.00 | 0.00 | 70 | 1011.8 |
| 20260906100001 | 52 | 314 | 3.0 | 4.0 | 0.00 | 0.00 | 0.00 | 66 | 1011.8 |
| 20260906094602 | 51 | 314 | 4.0 | 5.0 | 0.00 | 0.00 | 0.00 | 67 | 1011.9 |
| 20260906093056 | 51 | 24 | 0.0 | 3.0 | 0.00 | 0.00 | 0.00 | 66 | 1012.0 |
| 20260906091553 | 52 | 310 | 4.0 | 7.0 | 0.00 | 0.00 | 0.00 | 65 | 1012.1 |
| 20260906090056 | 52 | 298 | 4.0 | 5.0 | 0.00 | 0.00 | 0.00 | 63 | 1012.1 |
| 20260906084552 | 53 | 29 | 1.0 | 4.0 | 0.00 | 0.00 | 0.00 | 65 | 1012.1 |
| 20260906083052 | 53 | 24 | 2.0 | 0.0 | 0.00 | 0.00 | 0.00 | 65 | 1012.1 |
| 20260906081546 | 53 | 342 | 1.0 | 5.0 | 0.00 | 0.00 | 0.00 | 64 | 1012.2 |
| 20260906080049 | 54 | 7 | 2.0 | 5.0 | 0.00 | 0.00 | 0.00 | 63 | 1012.2 |
| 20260906074541 | 54 | 44 | 2.0 | 4.0 | 0.00 | 0.00 | 0.00 | 59 | 1012.2 |
| 20260906073041 | 56 | 259 | 0.0 | 1.0 | 0.00 | 0.00 | 0.00 | 55 | 1012.2 |
| 20260906071541 | 58 | 282 | 1.0 | 5.0 | 0.00 | 0.00 | 0.00 | 51 | 1012.0 |
| 20260906070032 | 58 | 260 | 2.0 | 6.0 | 0.00 | 0.00 | 0.00 | 52 | 1012.0 |
| 20260906064532 | 58 | 240 | 4.0 | 9.0 | 0.00 | 0.00 | 0.00 | 53 | 1011.9 |
| 20260906063031 | 58 | 248 | 8.0 | 16.0 | 0.00 | 0.00 | 0.00 | 52 | 1011.9 |
| 20260906061530 | 58 | 217 | 10.0 | 14.0 | 0.00 | 0.00 | 0.00 | 54 | 1012.0 |
| 20260906060035 | 58 | 221 | 8.0 | 16.0 | 0.00 | 0.00 | 0.00 | 53 | 1012.0 |
| 20260906054529 | 57 | 265 | 11.0 | 15.0 | 0.00 | 0.00 | 0.00 | 54 | 1012.0 |
| 20260906053030 | 57 | 240 | 8.0 | 16.0 | 0.00 | 0.00 | 0.00 | 54 | 1012.0 |
| 20260906051527 | 57 | 226 | 7.0 | 16.0 | 0.00 | 0.00 | 0.00 | 54 | 1012.1 |
| 20260906050027 | 57 | 252 | 8.0 | 17.0 | 0.00 | 0.00 | 0.00 | 55 | 1012.0 |
| 20260906044526 | 58 | 262 | 10.0 | 16.0 | 0.00 | 0.00 | 0.00 | 55 | 1012.1 |
| 20260906043030 | 58 | 234 | 10.0 | 15.0 | 0.00 | 0.00 | 0.00 | 54 | 1012.2 |
| 20260906041526 | 58 | 263 | 8.0 | 14.0 | 0.00 | 0.00 | 0.00 | 54 | 1012.3 |
| 20260906040030 | 58 | 268 | 8.0 | 16.0 | 0.00 | 0.00 | 0.00 | 55 | 1012.0 |
| 20260906034534 | 58 | 251 | 12.0 | 19.0 | 0.00 | 0.00 | 0.00 | 55 | 1011.7 |
| 20260906033028 | 58 | 291 | 9.0 | 16.0 | 0.00 | 0.00 | 0.00 | 55 | 1011.5 |
| 20260906031523 | 58 | 267 | 6.0 | 18.0 | 0.00 | 0.00 | 0.00 | 55 | 1011.4 |
| 20260906030023 | 59 | 301 | 9.0 | 17.0 | 0.00 | 0.00 | 0.00 | 54 | 1011.3 |
| 20260906024522 | 60 | 281 | 10.0 | 16.0 | 0.00 | 0.00 | 0.00 | 52 | 1011.0 |
| 20260906023022 | 60 | 274 | 9.0 | 17.0 | 0.00 | 0.00 | 0.00 | 51 | 1010.7 |
| 20260906021523 | 61 | 295 | 5.0 | 12.0 | 0.00 | 0.00 | 0.00 | 49 | 1011.0 |
| 20260906020020 | 63 | 290 | 4.0 | 11.0 | 0.00 | 0.00 | 0.00 | 45 | 1010.9 |
| 20260906014533 | 65 | 302 | 4.0 | 10.0 | 0.00 | 0.00 | 0.00 | 43 | 1010.7 |
| 20260906013018 | 66 | 278 | 4.0 | 14.0 | 0.00 | 0.00 | 0.00 | 41 | 1010.7 |
| 20260906011532 | 66 | 267 | 13.0 | 17.0 | 0.00 | 0.00 | 0.00 | 41 | 1010.6 |
| 20260906010016 | 67 | 276 | 13.0 | 18.0 | 0.00 | 0.00 | 0.00 | 39 | 1010.5 |
| 20260906004524 | 68 | 260 | 14.0 | 19.0 | 0.00 | 0.00 | 0.00 | 37 | 1010.6 |
| 20260906003013 | 67 | 242 | 13.0 | 21.0 | 0.00 | 0.00 | 0.00 | 38 | 1010.5 |
| 20260906001512 | 68 | 245 | 15.0 | 23.0 | 0.00 | 0.00 | 0.00 | 40 | 1010.5 |
| 20260906000010 | 68 | 270 | 12.0 | 22.0 | 0.00 | 0.00 | 0.00 | 39 | 1010.5 |
| 20260905234510 | 69 | 282 | 11.0 | 21.0 | 0.00 | 0.00 | 0.00 | 38 | 1010.6 |
| 20260905233107 | 69 | 245 | 11.0 | 19.0 | 0.00 | 0.00 | 0.00 | 39 | 1010.4 |
| 20260905231507 | 69 | 229 | 8.0 | 19.0 | 0.00 | 0.00 | 0.00 | 38 | 1010.5 |